Regional Weather Roundup
Issued by NWS Cleveland, OH

Home | Current Version | Previous Version | Text Only | Print | Product List | Glossary On
Versions: 1 2 3 4 5 6 7 8 9 10 11 12 13 14 15 16 17 18 19 20 21 22 23 24 25 26 27 28 29 30 31 32 33 34 35 36 37 38 39 40 41 42 43 44 45 46 47 48 49 50
000
ASUS41 KCLE 131210
RWRCLE
OHIO REGIONAL WEATHER ROUNDUP
NATIONAL WEATHER SERVICE WILMINGTON, OH
800 AM EDT SUN JUL 13 2014

NOTE: "FAIR" INDICATES FEW OR NO CLOUDS BELOW 12,000 FEET WITH NO
SIGNIFICANT WEATHER AND/OR OBSTRUCTIONS TO VISIBILITY.

OHZ001>008-015>018-024>027-034-035-043-044-131300-
   NORTHWEST OHIO

CITY           SKY/WX    TMP DP  RH WIND       PRES   REMARKS
DEFIANCE       CLOUDY    76  69  79 W10G21    29.88S
FINDLAY        CLOUDY    78  70  76 SW14G22   29.89R
TOLEDO EXPRESS LGT RAIN  74  70  87 SW15G31   29.84S
TOLEDO METCALF CLOUDY    76  71  85 SW18G25   29.86R
LIMA           CLOUDY    78  71  79 SW10      29.93R
$$

OHZ009>014-019>023-028>033-038-089-131300-
   NORTHEAST OHIO

CITY           SKY/WX    TMP DP  RH WIND       PRES   REMARKS
CLE-HOPKINS    TSTM      72  69  90 S8        29.90F
CLE-LAKEFRONT  LGT RAIN  74  68  81 S18G30    29.85F
CUY CO. ARPT   LGT RAIN  75  72  88 SW10G20   29.91R FOG
LORAIN-ELYRIA  CLOUDY    76  70  82 SW13      29.90F
ASHTABULA      LGT RAIN  72  66  81 SW13      29.90S
AKRON-CANTON   CLOUDY    76  66  71 SW9       29.94F
WOOSTER        CLOUDY    74  66  76 SW10      29.94S
MANSFIELD      CLOUDY    77  69  76 SW14G24   29.94S
YOUNGSTOWN     CLOUDY    71  67  87 S8        29.94S
$$

OHZ042-051>053-060>062-070>072-077>081-131300-
  SOUTHWEST OHIO

CITY           SKY/WX    TMP DP  RH WIND       PRES   REMARKS
CINC-COVINGTON CLOUDY    77  68  73 SW10      30.01F
CINC-LUNKEN    CLOUDY    76  69  79 S10       30.00F
HAMILTON       CLOUDY    78  70  76 SW5       29.99F
DAYTON         CLOUDY    76  69  79 SW13      29.98R
WRIGHT-PAT AFB CLOUDY    77  70  77 SW15      29.97S
DAYTON GENERAL CLOUDY    77  69  76 SW10      29.98F
WILMINGTON     CLOUDY    74  67  78 SW12      30.00F
$$

OHZ036-037-039>041-045>050-054>059-063>069-073>076-082>088-131300-
  CENTRAL AND SOUTHEAST OHIO

CITY           SKY/WX    TMP DP  RH WIND       PRES   REMARKS
COLUMBUS       CLOUDY    78  67  68 SW9       29.96F
OSU AIRPORT    CLOUDY    77  68  73 SW10      29.96S
BOLTON FIELD   SUNNY     75  70  83 SW15      29.97S
RICKENBACK AFB CLOUDY    77  64  64 S12       29.96F
NEWARK         PTSUNNY   76  66  71 SW7       29.97S
MARION         CLOUDY    76  68  76 SW15G21   29.94R HAZE
LANCASTER      CLOUDY    77  66  68 SW10G21   29.98F
ZANESVILLE     PTSUNNY   76  66  71 SW10      29.99S
NEW PHILLY     PTSUNNY   74  66  76 VRB5      29.96F
$$


USA.gov is the U.S. government's official web portal to all federal, state and local government web resources and services.